Location: Krasnoyarskiy Pitomnik
(51.1333°N, 71.6167°E)
Time: 00:02:05
(UTC+00:00)

deb Explorer IX - Pass Details

Date: 22 April 2024
Orbit: 513 x 891 km, 38.7° (Epoch: 21 May)

Event Time Altitude Azimuth Distance (km) Brightness Sun altitude
Rises 10:20:46 0° 260° (W) 3,519 ? 35.7°
Reaches altitude 10° 10:24:48 10° 235° (SW) 2,582 ? 35.2°
Maximum altitude 10:27:37 13° 208° (SSW) 2,331 ? 34.8°
Drops below altitude 10° 10:30:24 10° 181° (S) 2,546 ? 34.4°
Sets 10:34:21 0° 156° (SSE) 3,432 ? 33.8°
